This is the latest recevied weather packets stored in our database for station/object Ad4UU. If no packets are shown the sender has not sent any weather packets the latest 10 day(s).
| Time | Temp. | Humidity | Pressure | Rain* | Wind** | Luminosity | Snow |
|---|---|---|---|---|---|---|---|
| 1777163731 | 23.89° C | 71% | 1011.6 hPa | 0 mm | - | - | - |
| 1777162543 | 24.44° C | 67% | 1010.8 hPa | 0 mm | - | - | - |
| 1777162230 | 24.44° C | 67% | 1011.1 hPa | 0 mm | - | - | - |
| 1777161033 | 25° C | 64% | 1011.2 hPa | 0 mm | - | - | - |
| 1777160752 | 25.56° C | 63% | 1011.2 hPa | 0 mm | - | - | - |
| 1777159850 | 25.56° C | 62% | 1010.9 hPa | 0 mm | - | - | - |
| 1777158954 | 26.11° C | 59% | 1010.8 hPa | 0 mm | - | - | - |
| 1777157144 | 26.67° C | 57% | 1010.8 hPa | 0 mm | - | - | - |
| 1777156534 | 27.22° C | 55% | 1010.9 hPa | 0 mm | - | - | - |
| 1777155631 | 27.78° C | 51% | 1011 hPa | 0 mm | - | - | - |
| 1777154731 | 28.33° C | 52% | 1010.9 hPa | 0 mm | - | - | - |
| 1777154132 | 28.33° C | 49% | 1011.2 hPa | 0 mm | - | - | - |
| 1777152932 | 28.89° C | 47% | 1011.2 hPa | 0 mm | - | - | - |
| 1777152647 | 29.44° C | 49% | 1011.1 hPa | 0 mm | - | - | - |
| 1777151432 | 28.89° C | 50% | 1011.1 hPa | 0 mm | - | - | - |
| 1777151132 | 29.44° C | 49% | 1011.3 hPa | 0 mm | - | - | - |
| 1777150845 | 29.44° C | 51% | 1011.4 hPa | 0 mm | - | - | - |
| 1777148732 | 29.44° C | 48% | 1011.3 hPa | 0 mm | - | - | - |
| 1777147535 | 30° C | 47% | 1011.4 hPa | 0 mm | - | - | - |
| 1777145445 | 30° C | 43% | 1011.7 hPa | 0 mm | - | - | - |
| 1777144834 | 30° C | 43% | 1012 hPa | 0 mm | - | - | - |
| 1777142750 | 30° C | 48% | 1012.2 hPa | 0 mm | - | - | - |
| 1777142434 | 30° C | 49% | 1012.2 hPa | 0 mm | - | - | - |
| 1777141532 | 30° C | 50% | 1012.4 hPa | 0 mm | - | - | - |
| 1777140632 | 29.44° C | 52% | 1012.4 hPa | 0 mm | - | - | - |
* Rain latest hour (hover to see other rain measurements)
** Current wind speed in m/s (hover to see current wind gust speed)